Skip Page Navigation
NASA JPL Caltech
NASA Logo - Jet Propulsion Laboratory + View the NASA Portal
+ Center for Near-Earth Object Studies
JPL Home Earth Solar System Stars & Galaxies Technology
JPL Solar System Dynamics
BODIES ORBITS EPHEMERIDES TOOLS PHYSICAL DATA DISCOVERY FAQ SITE MAP
JPL Small-Body Database Browser
Search: [ help ]  
(2010 EY94)
Classification: Asteroid          SPK-ID: 3512609
Ephemeris | Orbit Diagram | Orbital Elements | Mission Design | Physical Parameters ]

[ show orbit diagram ]
Orbital Elements at Epoch 2455271.5 (2010-Mar-16.0) TDB
Reference: JPL 5 (heliocentric ecliptic J2000)
 Element Value Uncertainty (1-sigma)   Units 
e .4071059044047778 0.61143  
a 4.611121811357592 5.3227 au
q 2.733906896024262 0.34935 au
i 36.08362832862572 42.029 deg
node 168.6993389964011 6.3007 deg
peri 306.498377592165 48.837 deg
M 25.64106879748331 18.895 deg
tp 2455013.902322778290
(2009-Jul-01.40232278)
256.29 TDB
period 3616.665300976752
9.90
6262.2
17.14
d
yr
n .09953920809392421 0.17235 deg/d
Q 6.488336726690921 7.4896 au
  Orbit Determination Parameters
   # obs. used (total)      11  
   data-arc span      3 days  
   first obs. used      2010-03-14  
   last obs. used      2010-03-17  
   planetary ephem.      DE431  
   SB-pert. ephem.      SB431-N16  
   condition code      9  
   norm. resid. RMS      .69417  
   source      ORB  
   producer      Otto Matic  
   solution date      2019-Dec-18 09:03:56  

Additional Information
 Earth MOID = 1.87658 au 
 Jupiter MOID = .0227244 au 
 T_jup = 2.518 
[ show covariance matrix ]

Ephemeris | Orbit Diagram | Orbital Elements | Mission Design | Physical Parameters ]

Physical Parameter Table
Parameter Symbol Value Units Sigma Reference Notes
absolute magnitude H 16.127   .2344 5 autocmod 2.8
Ephemeris | Orbit Diagram | Orbital Elements | Mission Design | Physical Parameters ]
ABOUT SSD CREDITS/AWARDS PRIVACY/COPYRIGHT GLOSSARY LINKS
FirstGov 2020-Aug-11 07:25 UT
(server date/time)  
NASA Home Page
Site Manager:   Ryan S. Park
Webmaster  Alan B. Chamberlin